Station BDRN4 - 8539094 - Burlington, Delaware River, NJ Image indicating link to RSS feed of recent meteorological observations for station BDRN4


Conditions at BDRN4 as of
(3:36 am EDT)
0736 GMT on 05/26/2024:
     

Click on the graph icon in the table below to see a time series plot of the last five days of that observation.

5-day plot - Wind Direction Wind Direction (WDIR):ESE ( 110 deg true )
5-day plot - Wind Speed Wind Speed (WSPD): 1.9 kts
5-day plot - Wind Gust Wind Gust (GST): 2.9 kts
5-day plot - Atmospheric Pressure Atmospheric Pressure (PRES):29.85 in
5-day plot - Air Temperature Air Temperature (ATMP): 70.3 °F
5-day plot - Water Temperature Water Temperature (WTMP): 73.2 °F
5-day plot - Wind Speed at 10 Meters Wind Speed at 10 meters (WSPD10M): 1.9 kts
5-day plot - Wind Speed at 20 Meters Wind Speed at 20 meters (WSPD20M): 3.9 kts
5-day plot -  Wind Speed, Wind Gust and Atmospheric Pressure Combined plot of Wind Speed, Gust, and Air Pressure
NOS Water Level Observation Network Water Level
Previous observations
TIME
(EDT)
5-day plot - Wind Direction
WDIR
 
5-day plot - Wind Speed
WSPD
kts
5-day plot - Wind Gust
GST
kts
5-day plot - Wave Height
WVHT
ft
5-day plot - Dominant Wave Period
DPD
sec
5-day plot - Average Wave Period
APD
sec
5-day plot - Mean Wave Direction
MWD
 
5-day plot - Atmospheric Pressure
PRES
in
5-day plot - Pressure Tendency
PTDY
in
5-day plot - Air Temperature
ATMP
°F
5-day plot - Water Temperature
WTMP
°F
5-day plot - Dew Point
DEWP
°F
5-day plot - Salinity
SAL
psu
5-day plot - Visibility
VIS
nmi
5-day plot - Tide (above MLLW)
TIDE
ft
2024-05-26 03:30 am E 1.9 2.9----29.85- 70.9 73.4----
2024-05-26 03:24 am E 1.0 1.9----29.84- 70.9 73.4----
2024-05-26 03:18 am- 0.0 1.0----29.85- 70.9 73.4----
2024-05-26 03:12 am- 0.0 0.0----29.85- 70.9 73.4----
2024-05-26 03:06 am- 0.0 0.0----29.85- 71.1 73.4----
2024-05-26 03:00 am- 0.0 1.0----29.85+0.00 71.1 73.6----
2024-05-26 02:54 am E 1.0 1.9----29.84- 71.2 73.6----
2024-05-26 02:48 am SE 1.9 1.9----29.84- 71.2 73.6----
2024-05-26 02:42 amSSE 1.0 1.9----29.84- 71.2 73.6----
2024-05-26 02:36 am S 1.9 2.9----29.84- 71.2 73.6----
2024-05-26 02:30 am S 2.9 4.1----29.84- 71.2 73.6----
2024-05-26 02:24 amSSE 1.9 4.1----29.84- 71.4 73.8----
2024-05-26 02:18 amSSE 1.9 2.9----29.84- 71.6 73.8----
2024-05-26 02:12 amSSE 1.9 1.9----29.84- 71.6 73.8----
2024-05-26 02:06 amSSE 1.9 2.9----29.84- 71.4 73.8----
2024-05-26 02:00 am- 0.0 1.0----29.84-0.01 71.6 73.8----
2024-05-26 01:54 am- 0.0 1.9----29.84- 71.6 73.8----
2024-05-26 01:48 amSSE 1.0 2.9----29.84- 71.8 73.9----
2024-05-26 01:42 am S 1.9 2.9----29.84- 71.8 73.9----
2024-05-26 01:36 am S 1.9 2.9----29.84- 72.0 73.9----
2024-05-26 01:30 am S 2.9 4.1----29.84- 72.1 73.9----
2024-05-26 01:24 amSSE 2.9 4.1----29.84- 72.3 74.1----
2024-05-26 01:18 amSSE 2.9 2.9----29.84- 72.1 74.1----
2024-05-26 01:12 amSSE 1.9 1.9----29.84- 72.1 74.1----
2024-05-26 01:06 am SE 1.0 1.9----29.84- 72.0 74.1----
2024-05-26 01:00 am- 0.0 0.0----29.85-0.02 72.1 74.1----
2024-05-26 12:54 am- 0.0 1.0----29.85- 72.0 74.3----
2024-05-26 12:48 am N 1.9 2.9----29.85- 71.8 74.3----
2024-05-26 12:42 amNNW 1.9 2.9----29.85- 71.8 74.3----
2024-05-26 12:36 amNNW 1.9 1.9----29.85- 71.1 74.3----
2024-05-26 12:30 am- 0.0 1.9----29.85- 71.6 74.3----
2024-05-26 12:24 amSSE 1.0 1.9----29.85- 72.7 74.3----
2024-05-26 12:18 am S 1.9 1.9----29.85- 72.7 74.3----
2024-05-26 12:12 am S 1.0 1.9----29.85- 72.7 74.3----
2024-05-26 12:06 am- 0.0 1.9----29.85- 72.9 74.3----
2024-05-26 12:00 am S 1.9 2.9----29.85+0.01 72.9 74.3----
2024-05-25 11:54 pm S 1.0 2.9----29.85- 73.0 74.3----
2024-05-25 11:48 pmSSE 1.9 4.1----29.84- 73.0 74.3----
2024-05-25 11:42 pmSSE 2.9 2.9----29.84- 73.2 74.3----
2024-05-25 11:36 pm S 1.9 4.1----29.84- 73.4 74.1----
2024-05-25 11:30 pmSSE 2.9 5.1----29.84- 73.4 74.1----
2024-05-25 11:24 pm S 2.9 4.1----29.84- 73.6 74.3----
2024-05-25 11:18 pmSSE 2.9 4.1----29.84- 73.8 74.1----
2024-05-25 11:12 pm S 2.9 5.1----29.85- 73.9 74.1----
2024-05-25 11:06 pm S 4.1 5.1----29.85- 74.1 74.1----
2024-05-25 11:00 pm S 4.1 5.1----29.85+0.05 74.1 74.1----
2024-05-25 10:54 pm S 2.9 5.1----29.86- 74.1 74.1----
2024-05-25 10:48 pm S 2.9 4.1----29.86- 74.1 74.1----
2024-05-25 10:42 pmSSE 2.9 4.1----29.86- 74.1 74.1----
2024-05-25 10:36 pmSSW 1.9 2.9----29.87- 74.1 73.9----
2024-05-25 10:30 pmWSW 1.9 2.9----29.87- 74.3 73.9----
2024-05-25 10:24 pmSSW 2.9 4.1----29.87- 74.3 73.9----
2024-05-25 10:18 pmSSW 2.9 5.1----29.87- 74.3 73.9----
2024-05-25 10:12 pm S 2.9 5.1----29.87- 74.5 73.9----
2024-05-25 10:06 pm S 2.9 4.1----29.87- 74.7 73.9----
2024-05-25 10:00 pm S 1.9 4.1----29.87+0.07 74.8 73.9----
2024-05-25 09:54 pm S 2.9 5.1----29.86- 75.2 73.9----
2024-05-25 09:48 pm S 4.1 7.0----29.86- 75.2 73.9----
2024-05-25 09:42 pm S 4.1 6.0----29.86- 75.4 73.9----
2024-05-25 09:36 pm S 4.1 6.0----29.85- 75.7 73.9----
2024-05-25 09:30 pm S 4.1 6.0----29.85- 75.9 73.9----
2024-05-25 09:24 pmSSE 4.1 5.1----29.85- 76.1 73.8----
2024-05-25 09:18 pmSSE 4.1 6.0----29.84- 76.3 73.8----
2024-05-25 09:12 pm S 4.1 6.0----29.83- 76.5 73.8----
2024-05-25 09:06 pmSSE 2.9 5.1----29.83- 76.6 73.6----
2024-05-25 09:00 pmSSE 2.9 5.1----29.83+0.04 77.0 73.6----
2024-05-25 08:54 pm S 4.1 7.0----29.83- 77.2 73.6----
2024-05-25 08:48 pmSSE 5.1 7.0----29.83- 77.4 73.6----
2024-05-25 08:42 pmSSE 5.1 8.0----29.83- 77.5 73.6----
2024-05-25 08:36 pmSSE 5.1 8.0----29.82- 77.7 73.6----
2024-05-25 08:30 pmSSE 5.1 8.0----29.82- 77.9 73.6----
2024-05-25 08:24 pmSSE 5.1 8.0----29.82- 78.1 73.6----
2024-05-25 08:18 pmSSE 5.1 8.9----29.82- 78.3 73.4----
2024-05-25 08:12 pmSSE 5.1 7.0----29.81- 78.4 73.4----
2024-05-25 08:06 pmSSE 5.1 8.9----29.81- 78.6 73.4----
2024-05-25 08:00 pm SE 5.1 8.9----29.81+0.01 78.6 73.4----
2024-05-25 07:54 pmSSE 5.1 7.0----29.80- 78.8 73.4----
2024-05-25 07:48 pm SE 5.1 8.0----29.80- 79.0 73.4----
2024-05-25 07:42 pm SE 7.0 8.9----29.80- 79.2 73.4----
2024-05-25 07:36 pm SE 7.0 9.9----29.80- 79.3 73.4----
2024-05-25 07:30 pm SE 6.0 8.0----29.80- 79.5 73.2----
2024-05-25 07:24 pmSSE 7.0 9.9----29.80- 79.5 73.2----
2024-05-25 07:18 pm SE 7.0 12.0----29.80- 79.7 73.2----
2024-05-25 07:12 pm SE 6.0 11.1----29.80- 79.9 73.0----
2024-05-25 07:06 pm SE 6.0 8.0----29.79- 79.9 73.2----
2024-05-25 07:00 pmESE 5.1 8.9----29.79+0.00 80.1 73.0----
2024-05-25 06:54 pm SE 6.0 8.9----29.79- 80.2 73.0----
2024-05-25 06:48 pm SE 6.0 8.9----29.79- 80.4 73.0----
2024-05-25 06:42 pm SE 7.0 12.0----29.79- 80.6 72.9----
2024-05-25 06:36 pm SE 8.0 11.1----29.78-- 72.9----
2024-05-25 06:30 pm SE 8.0 12.0----29.78-- 72.9----
2024-05-25 06:24 pm SE 7.0 9.9----29.78-- 72.9----
2024-05-25 06:18 pm SE 5.1 8.0----29.78-- 72.9----
2024-05-25 06:12 pm SE 6.0 11.1----29.79-- 72.9----
2024-05-25 06:06 pmESE 6.0 9.9----29.79-- 72.9----
2024-05-25 06:00 pm SE 6.0 9.9----29.79-0.02- 72.9----
2024-05-25 05:54 pmSSE 7.0 9.9----29.79-- 72.9----
2024-05-25 05:48 pm SE 7.0 11.1----29.78-- 72.9----
2024-05-25 05:42 pmESE 6.0 8.0----29.78-- 72.9----
2024-05-25 05:36 pmESE 6.0 8.0----29.79- 82.0 72.7----
2024-05-25 05:30 pmESE 6.0 8.9----29.79- 82.0 72.7----
2024-05-25 05:24 pm SE 7.0 8.9----29.80- 81.9 72.7----
2024-05-25 05:18 pm SE 7.0 9.9----29.80- 81.7 72.7----
2024-05-25 05:12 pmESE 6.0 9.9----29.80- 81.9 72.7----
2024-05-25 05:06 pmESE 8.0 11.1----29.79- 82.0 72.7----
2024-05-25 05:00 pm E 9.9 13.0----29.79-0.03 81.7 72.7----
2024-05-25 04:54 pmESE 8.0 11.1----29.79- 81.7 72.7----
2024-05-25 04:48 pm E 6.0 9.9----29.80- 82.4 72.7----
2024-05-25 04:42 pmENE 8.0 9.9----29.80- 81.9 72.7----
2024-05-25 04:36 pm NE 1.9 2.9----29.80-- 72.7----
2024-05-25 04:30 pm NE 1.0 1.9----29.80-- 72.7----
2024-05-25 04:24 pm E 2.9 5.1----29.79-- 72.7----
2024-05-25 04:18 pm W 1.0 2.9----29.80-- 72.7----
2024-05-25 04:12 pm W 1.9 2.9----29.80-- 72.7----
2024-05-25 04:06 pm- 0.0 2.9----29.80-- 72.7----
2024-05-25 04:00 pm- 0.0 2.9----29.80-0.04- 72.7----
2024-05-25 03:54 pmWNW 2.9 4.1----29.80-- 72.7----
2024-05-25 03:48 pm W 2.9 4.1----29.80-- 72.7----
2024-05-25 03:42 pm W 1.9 4.1----29.80-- 72.7----
2024-05-25 03:36 pm W 4.1 5.1----29.80-- 72.7----
2024-05-25 03:30 pmWSW 4.1 6.0----29.80-- 72.9----
2024-05-25 03:24 pm W 2.9 4.1----29.80-- 72.9----
2024-05-25 03:18 pmWSW 5.1 8.0----29.80-- 72.9----
2024-05-25 03:12 pmWSW 2.9 5.1----29.80-- 72.9----
2024-05-25 03:06 pm W 5.1 7.0----29.80-- 72.9----
2024-05-25 03:00 pm W 6.0 11.1----29.80-0.06- 72.9----
2024-05-25 02:54 pmWNW 6.0 9.9----29.81-- 72.9----
2024-05-25 02:48 pm W 5.1 7.0----29.81-- 73.0----
2024-05-25 02:42 pm W 5.1 7.0----29.81-- 73.0----
2024-05-25 02:36 pm W 1.9 4.1----29.82-- 73.0----
2024-05-25 02:30 pmWNW 4.1 5.1----29.82-- 73.0----
2024-05-25 02:24 pm W 4.1 8.0----29.82-- 73.0----
2024-05-25 02:18 pmWNW 2.9 4.1----29.82-- 73.0----
2024-05-25 02:12 pm NW 1.0 2.9----29.82-- 73.2----
2024-05-25 02:06 pm W 4.1 5.1----29.82-- 73.2----
2024-05-25 02:00 pmWSW 1.9 2.9----29.83-- 73.2----
2024-05-25 01:54 pmWNW 1.9 5.1----29.83-- 73.2----
2024-05-25 01:48 pmWNW 1.9 5.1----29.83-- 73.2----
2024-05-25 01:42 pmWNW 1.0 4.1----29.83-- 73.4----
2024-05-25 01:36 pm E 1.0 4.1----29.83-- 73.4----
2024-05-25 01:30 pm E 2.9 5.1----29.83-- 73.4----
2024-05-25 01:24 pm NE 1.9 5.1----29.83-- 73.4----
2024-05-25 01:18 pm E 5.1 6.0----29.83-- 73.4----
2024-05-25 01:12 pm S 1.9 6.0----29.83-- 73.4----
2024-05-25 01:06 pmESE 2.9 6.0----29.83-- 73.4----
2024-05-25 01:00 pmSSE 1.9 5.1----29.84-0.04- 73.4----
2024-05-25 12:54 pm E 4.1 6.0----29.84-- 73.4----
2024-05-25 12:48 pm E 2.9 6.0----29.84-- 73.4----
2024-05-25 12:42 pmESE 6.0 7.0----29.84-- 73.4----
2024-05-25 12:36 pm E 2.9 6.0----29.85-- 73.4----
2024-05-25 12:30 pmESE 5.1 8.9----29.85-- 73.4----
2024-05-25 12:24 pm E 4.1 7.0----29.85-- 73.4----
2024-05-25 12:18 pm E 5.1 8.0----29.85-- 73.2----
2024-05-25 12:12 pmENE 5.1 7.0----29.85-- 73.2----
2024-05-25 12:06 pm SE 5.1 8.9----29.86-- 73.2----
2024-05-25 12:00 pm SE 4.1 8.0----29.86-0.01- 73.2----
2024-05-25 11:54 amESE 6.0 8.0----29.86-- 73.2----
2024-05-25 11:48 amENE 6.0 8.9----29.86-- 73.2----
2024-05-25 11:42 am E 5.1 8.9----29.86-- 73.0----
2024-05-25 11:36 am E 7.0 8.9------- 73.0----
2024-05-25 11:30 am E 6.0 8.0------- 73.0----
2024-05-25 11:24 amESE 1.9 5.1------- 72.9----
2024-05-25 11:18 amESE 4.1 8.0------- 72.9----
2024-05-25 11:12 am SE 5.1 7.0------- 72.9----
2024-05-25 11:06 amESE 1.9 7.0------- 72.9----
2024-05-25 11:00 am E 2.9 6.0------- 72.9----
2024-05-25 10:54 am E 4.1 6.0------- 72.7----
2024-05-25 10:48 amESE 7.0 8.9------- 72.7----
2024-05-25 10:42 am E 2.9 7.0------- 72.7----
2024-05-25 10:36 amESE 6.0 9.9----29.88- 76.1 72.7----
2024-05-25 10:30 amESE 4.1 7.0----29.88- 76.1 72.7----
2024-05-25 10:24 am SE 5.1 8.0----29.88- 75.4 72.7----
2024-05-25 10:18 am E 6.0 11.1----29.87- 75.0 72.5----
2024-05-25 10:12 am E 5.1 6.0----29.88- 75.0 72.5----
2024-05-25 10:06 amESE 2.9 7.0----29.88- 75.0 72.5----
2024-05-25 10:00 amESE 6.0 8.0----29.88+0.03 74.7 72.5----
2024-05-25 09:54 am SE 5.1 8.0----29.88- 74.5 72.5----
2024-05-25 09:48 amESE 4.1 6.0----29.88- 74.1 72.5----
2024-05-25 09:42 am SE 2.9 6.0----29.88- 74.3 72.3----
2024-05-25 09:36 am E 6.0 8.0----29.87- 74.1 72.3----
2024-05-25 09:30 amESE 5.1 8.0----29.87- 73.9 72.3----
2024-05-25 09:24 amESE 4.1 6.0----29.87- 73.4 72.3----
2024-05-25 09:18 amESE 6.0 8.9----29.87- 73.2 72.1----
2024-05-25 09:12 am SE 4.1 6.0----29.88- 73.0 72.1----
2024-05-25 09:06 amESE 4.1 6.0----29.87- 72.7 72.1----
2024-05-25 09:00 amESE 4.1 6.0----29.87+0.02 72.5 72.1----
2024-05-25 08:54 am E 4.1 6.0----29.87- 72.5 72.1----
2024-05-25 08:48 amESE 5.1 6.0----29.87- 72.1 72.0----
2024-05-25 08:42 amESE 5.1 5.1----29.87- 72.0 72.0----
2024-05-25 08:36 amESE 4.1 6.0----29.87- 71.6 72.0----
2024-05-25 08:30 amESE 4.1 8.0----29.87- 71.2 72.0----
2024-05-25 08:24 am E 2.9 6.0----29.86- 70.9 72.0----
2024-05-25 08:18 amESE 2.9 5.1----29.86- 70.9 72.0----
2024-05-25 08:12 am E 2.9 6.0----29.85- 70.5 71.8----
2024-05-25 08:06 am E 2.9 5.1----29.86- 69.8 71.8----
2024-05-25 08:00 am E 1.9 4.1----29.86+0.03 69.6 71.8----
2024-05-25 07:54 am E 2.9 5.1----29.86- 68.9 71.6----
2024-05-25 07:48 am E 4.1 5.1----29.85- 68.9 71.6----
2024-05-25 07:42 am E 5.1 6.0----29.85- 68.5 71.6----
2024-05-25 07:36 am E 4.1 5.1----29.85- 68.0 71.6----
2024-05-25 07:30 am E 4.1 5.1----29.85- 67.6 71.4----
2024-05-25 07:24 am E 2.9 4.1----29.85- 67.3 71.4----
2024-05-25 07:18 am E 4.1 5.1----29.85- 67.1 71.2----
2024-05-25 07:12 am E 2.9 4.1----29.85- 67.5 71.2----
2024-05-25 07:06 amENE 1.9 2.9----29.85- 67.8 71.2----
2024-05-25 07:00 amENE 1.9 4.1----29.85+0.03 67.3 71.2----
2024-05-25 06:54 amENE 2.9 4.1----29.85- 66.6 71.1----
2024-05-25 06:48 amENE 2.9 5.1----29.85- 65.7 71.1----
2024-05-25 06:42 amENE 2.9 5.1----29.85- 64.4 71.1----
2024-05-25 06:36 amENE 2.9 4.1----29.85- 64.0 71.1----
2024-05-25 06:30 amENE 2.9 4.1----29.85- 64.2 70.9----
2024-05-25 06:24 amENE 2.9 4.1----29.85- 64.2 70.9----
2024-05-25 06:18 am NE 1.9 2.9----29.85- 64.0 70.9----
2024-05-25 06:12 am NE 2.9 2.9----29.85- 64.0 70.9----
2024-05-25 06:06 amENE 1.0 1.9----29.85- 64.2 70.9----
2024-05-25 06:00 am- 0.0 1.9----29.85- 63.5 70.9----
2024-05-25 05:54 am- 0.0 1.0----29.85- 64.0 70.9----
2024-05-25 05:48 amNNE 1.0 4.1----29.85- 63.7 70.9----
2024-05-25 05:42 amNNE 1.9 2.9----29.85- 62.6 70.9----
2024-05-25 05:36 am N 1.9 2.9----29.85-- 70.9----
2024-05-25 05:30 amNNE 1.9 2.9----29.85-- 70.9----
2024-05-25 05:24 amNNW 2.9 4.1----29.85-- 70.9----
2024-05-25 05:18 amNNW 1.9 1.9----29.85-- 70.9----
2024-05-25 05:12 am- 0.0 1.0----29.84-- 70.9----
2024-05-25 05:06 amNNW 1.0 1.9----29.83-- 70.9----
2024-05-25 05:00 am- 0.0 1.0----29.83+0.00- 70.9----
2024-05-25 04:54 amESE 1.9 1.9----29.83-- 70.9----
2024-05-25 04:48 am S 1.9 2.9----29.83-- 70.9----
2024-05-25 04:42 amSSE 1.9 2.9----29.82-- 70.9----
2024-05-25 04:36 amSSE 1.0 1.9----29.82- 66.0 70.9----
2024-05-25 04:30 amENE 1.0 4.1----29.83- 65.3 70.9----
2024-05-25 04:24 amNNE 1.9 2.9----29.82- 65.3 70.9----
2024-05-25 04:18 amENE 1.9 4.1----29.82- 65.1 70.9----
2024-05-25 04:12 amENE 2.9 5.1----29.82- 64.8 70.9----
2024-05-25 04:06 amNNE 1.9 2.9----29.82- 64.9 70.9----
2024-05-25 04:00 amNNE 4.1 6.0----29.82+0.00 64.6 70.9----
2024-05-25 03:54 amNNE 6.0 8.0----29.82- 64.4 70.9----